Weather History for Lakeview AWS, OR

Change the Weather History Date:

Friday, March 8, 2013

  Actual Average Record
Temperature  
Mean Temperature 36 °F -  
Max Temperature 46 °F 47 °F 69 °F (1972)
Min Temperature 26 °F 27 °F 5 °F (1935)
Degree Days  
Heating Degree Days 29    
Moisture  
Dew Point 23 °F    
Average Humidity 64    
Maximum Humidity 93    
Minimum Humidity 34    
Precipitation  
Precipitation 0.00 in - - ()
Sea Level Pressure  
Sea Level Pressure 29.90 in    
Wind  
Wind Speed 11 mph (North)    
Max Wind Speed 16 mph    
Max Gust Speed 22 mph    
Visibility 10 miles    
Events      
Averages and records for this station are not official NWS values.
T = Trace of Precipitation, MM = Missing Value Source: NWS Daily Summary

Daily Weather History Graph

Daily Weather History Graph

Search for Another Location

Airport:

Trip Planner

Search our weather history database for the weather conditions in past years. The results will help you decide how hot, cold, wet, or windy it might be!

Date:

Astronomy

Mar. 08, 2013 Rise Set
Actual Time 6:24 AM PST 6:00 PM PST
Civil Twilight 5:56 AM PST 6:28 PM PST
Nautical Twilight 5:24 AM PST 7:00 PM PST
Astronomical Twilight 4:51 AM PST 7:33 PM PST
Moon 4:15 AM PST (3/8) 2:58 PM PST (3/8)
Length of Visible Light 12h 31m
Length of Day
11h 35m
Waning Crescent, 11% of the Moon is Illuminated
Mar 8
Waning Crescent
Mar 11
New
Mar 19
First Quarter
Mar 27
Full
Apr 2
Last Quarter

Hourly Weather History & Observations

Time (PST) Temp. Windchill Dew Point Humidity Pressure Visibility Wind Dir Wind Speed Gust Speed Precip Events Conditions
12:15 AM 28.4 °F 20.4 °F 26.6 °F 93% 29.88 in 10.0 mi North 8.1 mph - N/A   Overcast
12:35 AM 30.2 °F 22.6 °F 26.6 °F 86% 29.88 in 10.0 mi NNW 8.1 mph - N/A   Overcast
12:55 AM 30.2 °F 22.6 °F 26.6 °F 86% 29.88 in 10.0 mi NNW 8.1 mph - N/A   Overcast
1:15 AM 30.2 °F 22.6 °F 26.6 °F 86% 29.88 in 10.0 mi NNW 8.1 mph - N/A   Overcast
1:35 AM 30.2 °F 23.4 °F 26.6 °F 86% 29.88 in 10.0 mi NNW 6.9 mph - N/A   Overcast
1:55 AM 30.2 °F 21.3 °F 26.6 °F 86% 29.88 in 10.0 mi NNW 10.4 mph - N/A   Overcast
2:15 AM 30.2 °F 21.9 °F 26.6 °F 86% 29.88 in 10.0 mi North 9.2 mph - N/A   Overcast
2:35 AM 32.0 °F 23.6 °F 24.8 °F 75% 29.87 in 10.0 mi North 10.4 mph - N/A   Overcast
2:55 AM 32.0 °F 24.2 °F 24.8 °F 75% 29.87 in 10.0 mi North 9.2 mph - N/A   Overcast
3:15 AM 32.0 °F 24.2 °F 24.8 °F 75% 29.86 in 10.0 mi North 9.2 mph - N/A   Overcast
3:35 AM 32.0 °F 24.8 °F 24.8 °F 75% 29.86 in 10.0 mi North 8.1 mph - N/A   Overcast
4:15 AM 30.2 °F 20.8 °F 24.8 °F 80% 29.86 in 10.0 mi NNW 11.5 mph - N/A   Scattered Clouds
4:35 AM 30.2 °F 20.8 °F 24.8 °F 80% 29.86 in 10.0 mi North 11.5 mph - N/A   Clear
4:55 AM 30.2 °F 20.8 °F 24.8 °F 80% 29.86 in 10.0 mi North 11.5 mph - N/A   Clear
5:15 AM 28.4 °F 19.1 °F 24.8 °F 86% 29.87 in 10.0 mi North 10.4 mph - N/A   Clear
5:35 AM 28.4 °F 19.1 °F 23.0 °F 80% 29.86 in 10.0 mi North 10.4 mph - N/A   Clear
5:55 AM 28.4 °F 18.0 °F 23.0 °F 80% 29.86 in 10.0 mi NNW 12.7 mph - N/A   Clear
6:15 AM 26.6 °F 16.2 °F 23.0 °F 86% 29.86 in 10.0 mi NNW 11.5 mph - N/A   Clear
6:35 AM 28.4 °F 18.5 °F 24.8 °F 86% 29.86 in 10.0 mi NNW 11.5 mph - N/A   Clear
6:55 AM 28.4 °F 18.5 °F 24.8 °F 86% 29.87 in 10.0 mi NNW 11.5 mph - N/A   Clear
7:15 AM 30.2 °F 19.3 °F 24.8 °F 80% 29.87 in 10.0 mi North 15.0 mph - N/A   Clear
7:35 AM 32.0 °F 22.1 °F 24.8 °F 75% 29.87 in 10.0 mi North 13.8 mph 18.4 mph N/A   Clear
7:55 AM 33.8 °F 23.5 °F 24.8 °F 70% 29.87 in 10.0 mi NNW 16.1 mph 19.6 mph N/A   Clear
8:15 AM 33.8 °F 23.5 °F 24.8 °F 70% 29.88 in 10.0 mi North 16.1 mph 21.9 mph N/A   Clear
8:35 AM 33.8 °F 24.3 °F 24.8 °F 70% 29.88 in 10.0 mi North 13.8 mph 21.9 mph N/A   Clear
8:55 AM 35.6 °F 25.9 °F 24.8 °F 65% 29.88 in 10.0 mi NNW 16.1 mph - N/A   Clear
9:15 AM 37.4 °F 28.2 °F 26.6 °F 65% 29.88 in 10.0 mi NNW 16.1 mph - N/A   Clear
9:35 AM 37.4 °F 28.5 °F 26.6 °F 65% 29.88 in 10.0 mi NNW 15.0 mph - N/A   Clear
9:55 AM 39.2 °F 31.2 °F 24.8 °F 56% 29.88 in 10.0 mi NNW 13.8 mph 17.3 mph N/A   Clear
10:15 AM 39.2 °F 32.0 °F 24.8 °F 56% 29.88 in 10.0 mi NNW 11.5 mph - N/A   Clear
10:35 AM 41.0 °F 33.5 °F 24.8 °F 53% 29.88 in 10.0 mi North 13.8 mph - N/A   Clear
10:55 AM 41.0 °F 33.1 °F 26.6 °F 57% 29.88 in 10.0 mi North 15.0 mph 19.6 mph N/A   Clear
11:15 AM 42.8 °F 35.1 °F 26.6 °F 53% 29.87 in 10.0 mi North 16.1 mph - N/A   Clear
11:35 AM 42.8 °F 35.4 °F 28.4 °F 57% 29.87 in 10.0 mi North 15.0 mph 19.6 mph N/A   Scattered Clouds
11:55 AM 41.0 °F 32.8 °F 24.8 °F 53% 29.87 in 10.0 mi North 16.1 mph - N/A   Mostly Cloudy
12:15 PM 41.0 °F 33.1 °F 24.8 °F 53% 29.87 in 10.0 mi North 15.0 mph - N/A   Mostly Cloudy
12:35 PM 42.8 °F 36.2 °F 24.8 °F 49% 29.87 in 10.0 mi NNW 12.7 mph - N/A   Mostly Cloudy
12:55 PM 44.6 °F 37.4 °F 24.8 °F 46% 29.86 in 10.0 mi North 16.1 mph 20.7 mph N/A   Mostly Cloudy
1:15 PM 46.4 °F 41.1 °F 26.6 °F 46% 29.86 in 10.0 mi North 11.5 mph 19.6 mph N/A   Scattered Clouds
1:35 PM 44.6 °F 39.2 °F 21.2 °F 39% 29.85 in 10.0 mi North 10.4 mph 19.6 mph N/A   Mostly Cloudy
1:55 PM 46.4 °F 41.1 °F 21.2 °F 37% 29.85 in 10.0 mi North 11.5 mph - N/A   Partly Cloudy
2:15 PM 46.4 °F 41.5 °F 21.2 °F 37% 29.85 in 10.0 mi NNW 10.4 mph 18.4 mph N/A   Scattered Clouds
2:35 PM 46.4 °F 41.5 °F 21.2 °F 37% 29.86 in 10.0 mi NNW 10.4 mph 18.4 mph N/A   Mostly Cloudy
2:55 PM 44.6 °F 38.8 °F 19.4 °F 37% 29.86 in 10.0 mi NNW 11.5 mph 17.3 mph N/A   Mostly Cloudy
3:15 PM 46.4 °F 41.5 °F 19.4 °F 34% 29.87 in 10.0 mi North 10.4 mph 19.6 mph N/A   Mostly Cloudy
3:35 PM 44.6 °F 38.4 °F 19.4 °F 37% 29.87 in 10.0 mi NNW 12.7 mph 16.1 mph N/A   Partly Cloudy
3:55 PM 44.6 °F 37.8 °F 17.6 °F 34% 29.87 in 10.0 mi North 15.0 mph 20.7 mph N/A   Clear
4:15 PM 42.8 °F 37.0 °F 17.6 °F 36% 29.87 in 10.0 mi North 10.4 mph - N/A   Partly Cloudy
4:35 PM 42.8 °F 35.1 °F 17.6 °F 36% 29.88 in 10.0 mi North 16.1 mph - N/A   Mostly Cloudy
4:55 PM 42.8 °F 35.4 °F 21.2 °F 42% 29.89 in 10.0 mi NNE 15.0 mph - N/A   Scattered Clouds
5:15 PM 42.8 °F 36.2 °F 23.0 °F 46% 29.89 in 10.0 mi North 12.7 mph 18.4 mph N/A   Scattered Clouds
5:35 PM 41.0 °F 34.7 °F 21.2 °F 45% 29.90 in 10.0 mi North 10.4 mph - N/A   Mostly Cloudy
5:55 PM 37.4 °F 30.8 °F 21.2 °F 52% 29.91 in 10.0 mi NNE 9.2 mph - N/A   Partly Cloudy
6:15 PM 35.6 °F 28.0 °F 21.2 °F 56% 29.92 in 10.0 mi North 10.4 mph - N/A   Mostly Cloudy
6:35 PM 35.6 °F 28.6 °F 21.2 °F 56% 29.93 in 10.0 mi North 9.2 mph - N/A   Partly Cloudy
6:55 PM 35.6 °F 29.2 °F 21.2 °F 56% 29.94 in 10.0 mi NNE 8.1 mph - N/A   Mostly Cloudy
7:15 PM 32.0 °F 24.8 °F 19.4 °F 60% 29.95 in 10.0 mi NNW 8.1 mph - N/A   Mostly Cloudy
7:35 PM 32.0 °F 24.2 °F 21.2 °F 64% 29.96 in 10.0 mi North 9.2 mph - N/A   Clear
7:55 PM 32.0 °F 24.2 °F 21.2 °F 64% 29.97 in 10.0 mi North 9.2 mph - N/A   Clear
8:15 PM 32.0 °F 23.0 °F 23.0 °F 69% 29.98 in 10.0 mi North 11.5 mph - N/A   Clear
8:35 PM 33.8 °F 25.3 °F 21.2 °F 60% 29.99 in 10.0 mi North 11.5 mph - N/A   Clear
8:55 PM 33.8 °F 24.3 °F 21.2 °F 60% 30.00 in 10.0 mi North 13.8 mph 18.4 mph N/A   Clear
9:15 PM 33.8 °F 24.8 °F 23.0 °F 65% 30.01 in 10.0 mi North 12.7 mph - N/A   Clear
9:35 PM 32.0 °F 24.2 °F 23.0 °F 69% 30.02 in 10.0 mi North 9.2 mph - N/A   Clear
9:55 PM 32.0 °F 23.6 °F 23.0 °F 69% 30.02 in 10.0 mi North 10.4 mph - N/A   Clear
10:15 PM 32.0 °F 21.2 °F 24.8 °F 75% 30.03 in 10.0 mi North 16.1 mph - N/A   Clear
10:35 PM 32.0 °F 22.1 °F 23.0 °F 69% 30.05 in 10.0 mi North 13.8 mph - N/A   Clear
10:55 PM 30.2 °F 20.2 °F 23.0 °F 75% 30.05 in 10.0 mi North 12.7 mph - N/A   Clear
11:15 PM 30.2 °F 20.8 °F 21.2 °F 69% 30.06 in 10.0 mi North 11.5 mph - N/A   Clear
11:35 PM 30.2 °F 22.6 °F 21.2 °F 69% 30.07 in 10.0 mi North 8.1 mph - N/A   Clear
11:55 PM 28.4 °F 22.2 °F 21.2 °F 74% 30.08 in 10.0 mi NNW 5.8 mph - N/A   Clear